OBJECT J

Satellite information

Favourite Embed

Satellite Type and Status

UNKNOWNIN ORBIT

Key statistics

Satellite OBJECT J at a glance.

Uptime

2086

Days in orbit

Revolutions

≈ 14.9

Per day

Orbit

SSO

Sun Synchronous Orbit

Inclination

97.8

Latest

Satellite identification and parameters

Extended collection of information and parameters for OBJECT J.

Object identification

Identified? True

Debris? False

Object name: OBJECT J

International designator: 2019-093J

Object number (NORAD): 44887

Object ID (CCSDS): 44887

Country: TO BE DETERMINED/UNKNOWN (TBD)

Current information (Y/N): Y

RCS size: MEDIUM

Orbital parameters

Period: 96.598 minutes

Inclination: 97.8127 deg

SMA: 6973.835 km

Apoapsis: 603.709 km

Periapsis: 587.691 km

RAAN: 328.7619 deg

Eccentricy: 0.00114845

Argument of periapsis: 309.6286 deg

Mean anomaly: 50.3918 deg

Mean motion: 14.90717254 rev/day

Mean motion (dot): 0.0000557 rev/day2

B* drag term: 0.00057231638 1/REarth

Two-line elements (TLE)

Creation date: Sept. 3, 2025, 10:15 a.m.

Reference frame: TEME

Reference center: EARTH

Epoch: Sept. 3, 2025, 5:59 a.m. UTC

TLE line 0: 0 OBJECT J

TLE line 1: 1 44887U 19093J 25246.24976005 .00005570 00000-0 57232-3 0 9994

TLE line 2: 2 44887 97.8127 328.7619 0011484 309.6286 50.3918 14.90717254309216

Live tracking on map

Real-time ground track for satellite OBJECT J.

In-orbit conjunctions

There are no conjunctions computed for OBJECT J, at the moment. Check back to stay up to date, as we update our databases every day.

Go to all conjunctions

Associated space launch

On April 24, 2015, China and Brazil have signed the agreement for the construction of CBERS-4A. It's a third satellite in the continuity to the CBERS program, and a sixth CBERS satellite to be constructed. The CBERS satellites enhance and complement the existing remote sensing systems in an effort to improve our knowledge about the Earth environment and resources.

OBJECT J was lifted into orbit during the mission ‘Long March 4B | CBERS-4A’, on board a Long March 4B space rocket.

The launch took place on Dec. 20, 2019, 3:22 a.m. from Launch Complex 9.

For more information about the launch, click the button.

Launch to space Long March 4B | CBERS-4A
Long March 4B | CBERS-4A

Agency: N/A

Status: Launch Successful

Launch date: Dec. 20, 2019, 3:22 a.m. UTC

Rocket: Long March 4B

Launch pad: Launch Complex 9

Location: Taiyuan Satellite Launch Center, People's Republic of China

...

Latest news about this satellite

News about space launch
Long March 4B lofts CBERS-04A and Ethiopia’s first satellite


Newsletter sign-up

Weekly statistics, charts and insights to help you stay on top of the space industry.